Date String (YYYY-MM-DD hh:mm:ss) UTC,Instrument flags,Ambient pressure (hPa),Sample flow (lpm),Bypass flow (lpm),Sample temperature (°C),Ambient temperature (°C),ASC tube jacket temperature (°C),LED temperature (°C),Box temperature (°C),Sample RH (%),Span deviation,Mass concentration (μg/m³),Mass concentration (μg/m³),Mass concentration (μg/m³)
DateTimeUTC,F1_M11,P_M11,Q1_M11,Q2_M11,T1_M11,T2_M11,T3_M11,T4_M11,T5_M11,U1_M11,ZSPAN_M11,X2_M11,X0_M11,X1_M11
2022-01-04 22:00:00,,0819.0,5.00,0.00,22.9,22.2,00.0,31.8,24.7,10.8,0000.0,0001.31,0007.15,0000.50
2022-01-04 22:01:00,,0819.1,5.01,0.00,22.9,22.3,00.0,31.8,24.7,10.5,0000.0,0001.31,0007.19,0000.50
2022-01-04 22:02:00,,0819.0,4.99,0.00,22.9,22.3,00.0,31.8,24.8,10.3,0000.0,0001.28,0007.30,0000.50
2022-01-04 22:03:00,,0818.9,5.00,0.00,22.9,22.3,00.0,31.8,24.8,09.9,0000.0,0001.34,0007.76,0000.50
2022-01-04 22:04:00,,0818.8,5.00,0.00,23.0,22.3,00.0,31.8,24.8,09.5,0000.0,0001.34,0008.25,0000.50
2022-01-04 22:05:00,,0818.8,5.00,0.00,23.0,22.3,00.0,31.9,24.8,09.4,0000.0,0001.29,0008.31,0000.49
2022-01-04 22:06:00,,0818.7,5.01,0.00,23.0,22.3,00.0,31.9,24.8,09.3,0000.0,0001.25,0008.84,0000.48
2022-01-04 22:07:00,,0818.9,5.00,0.00,23.0,22.2,00.0,31.9,24.8,09.6,0000.0,0001.22,0009.02,0000.47
2022-01-04 22:08:00,,0818.9,5.00,0.00,23.0,22.2,00.0,31.9,24.7,09.8,0000.0,0001.23,0009.11,0000.46
2022-01-04 22:09:00,,0819.0,4.99,0.00,23.0,22.1,00.0,31.9,24.7,09.5,0000.0,0001.19,0009.48,0000.46
2022-01-04 22:10:00,,0818.9,5.00,0.00,23.0,22.1,00.0,31.9,24.7,09.8,0000.0,0001.14,0009.23,0000.45
2022-01-04 22:11:00,,0818.9,5.01,0.00,22.9,22.1,00.0,31.9,24.6,09.8,0000.0,0001.12,0009.46,0000.44
2022-01-04 22:12:00,,0818.9,4.98,0.00,22.9,22.0,00.0,31.9,24.6,09.7,0000.0,0001.08,0009.88,0000.42
2022-01-04 22:13:00,,0818.9,4.99,0.00,22.9,22.0,00.0,31.9,24.5,10.0,0000.0,0001.13,0010.37,0000.41
2022-01-04 22:14:00,,0818.9,5.00,0.00,22.9,22.0,00.0,31.9,24.5,10.1,0000.0,0001.08,0010.15,0000.40
2022-01-04 22:15:00,,0818.9,5.01,0.00,22.9,21.9,00.0,31.9,24.5,09.9,0000.0,0001.05,0009.31,0000.39
2022-01-04 22:16:00,,0818.8,4.99,0.00,22.9,21.9,00.0,31.9,24.5,10.0,0000.0,0001.10,0008.72,0000.40
2022-01-04 22:17:00,,0818.9,5.00,0.00,22.8,21.9,00.0,31.9,24.4,10.0,0000.0,0001.16,0008.33,0000.40
2022-01-04 22:18:00,,0818.9,4.99,0.00,22.8,21.9,00.0,31.9,24.4,10.2,0000.0,0001.26,0008.36,0000.40
2022-01-04 22:19:00,,0818.9,5.00,0.00,22.7,21.8,00.0,31.9,24.4,10.4,0000.0,0001.32,0007.95,0000.41
2022-01-04 22:20:00,,0819.0,5.01,0.00,22.7,21.8,00.0,31.9,24.3,10.4,0000.0,0001.33,0006.87,0000.42
2022-01-04 22:21:00,,0819.0,5.00,0.00,22.7,21.8,00.0,31.8,24.3,10.2,0000.0,0001.30,0006.88,0000.43
2022-01-04 22:22:00,,0819.0,4.99,0.00,22.7,21.8,00.0,31.8,24.4,10.3,0000.0,0001.33,0007.32,0000.42
2022-01-04 22:23:00,,0819.0,5.01,0.00,22.7,21.8,00.0,31.8,24.4,10.2,0000.0,0001.34,0006.48,0000.42
2022-01-04 22:24:00,,0819.0,4.99,0.00,22.7,21.8,00.0,31.8,24.4,10.0,0000.0,0001.26,0006.06,0000.43
2022-01-04 22:25:00,,0819.0,5.00,0.00,22.7,21.9,00.0,31.8,24.4,10.1,0000.0,0001.26,0007.16,0000.44
2022-01-04 22:26:00,,0819.0,5.01,0.00,22.7,21.9,00.0,31.8,24.3,10.2,0000.0,0001.31,0007.91,0000.44
2022-01-04 22:27:00,,0819.1,4.98,0.00,22.7,21.9,00.0,31.8,24.3,10.3,0000.0,0001.30,0008.03,0000.44
2022-01-04 22:28:00,,0819.2,5.00,0.00,22.7,21.9,00.0,31.8,24.3,10.3,0000.0,0001.22,0007.78,0000.43
2022-01-04 22:29:00,,0819.2,5.01,0.00,22.6,21.9,00.0,31.8,24.3,10.2,0000.0,0001.16,0007.64,0000.43
2022-01-04 22:30:00,,0819.2,4.99,0.00,22.6,21.8,00.0,31.7,24.3,10.1,0000.0,0001.11,0008.57,0000.43
2022-01-04 22:31:00,,0819.3,4.99,0.00,22.6,21.8,00.0,31.7,24.2,10.3,0000.0,0001.13,0008.66,0000.43
2022-01-04 22:32:00,,0819.3,5.00,0.00,22.5,21.8,00.0,31.7,24.2,10.2,0000.0,0001.20,0008.63,0000.42
2022-01-04 22:33:00,,0819.2,5.00,0.00,22.5,21.7,00.0,31.7,24.2,10.3,0000.0,0001.16,0008.15,0000.43
2022-01-04 22:34:00,,0819.3,5.00,0.00,22.5,21.7,00.0,31.7,24.2,10.3,0000.0,0001.13,0008.95,0000.43
2022-01-04 22:35:00,,0819.3,4.99,0.00,22.5,21.7,00.0,31.6,24.2,10.5,0000.0,0001.20,0008.92,0000.43
2022-01-04 22:36:00,,0819.3,5.02,0.00,22.4,21.7,00.0,31.6,24.1,10.4,0000.0,0001.25,0008.51,0000.43
2022-01-04 22:37:00,,0819.3,4.98,0.00,22.4,21.6,00.0,31.6,24.0,10.6,0000.0,0001.26,0008.05,0000.43
2022-01-04 22:38:00,,0819.3,5.01,0.00,22.4,21.6,00.0,31.6,24.0,10.6,0000.0,0001.33,0008.15,0000.44
2022-01-04 22:39:00,,0819.2,4.99,0.00,22.4,21.6,00.0,31.6,24.0,10.1,0000.0,0001.34,0008.28,0000.44
2022-01-04 22:40:00,,0819.1,5.01,0.00,22.4,21.6,00.0,31.5,24.1,10.2,0000.0,0001.29,0008.25,0000.44
2022-01-04 22:41:00,,0819.3,5.00,0.00,22.4,21.6,00.0,31.5,24.1,10.2,0000.0,0001.29,0007.74,0000.44
2022-01-04 22:42:00,,0819.3,5.01,0.00,22.4,21.7,00.0,31.5,24.1,10.0,0000.0,0001.30,0007.58,0000.43
2022-01-04 22:43:00,,0819.2,5.01,0.00,22.4,21.7,00.0,31.5,24.1,10.3,0000.0,0001.26,0007.51,0000.43
2022-01-04 22:44:00,,0819.2,4.99,0.00,22.4,21.7,00.0,31.5,24.1,10.5,0000.0,0001.33,0007.51,0000.42
2022-01-04 22:45:00,,0819.2,5.00,0.00,22.3,21.6,00.0,31.5,24.0,10.5,0000.0,0001.33,0006.37,0000.42
2022-01-04 22:46:00,,0819.3,5.00,0.00,22.3,21.6,00.0,31.5,24.0,10.5,0000.0,0001.30,0007.44,0000.42
2022-01-04 22:47:00,,0819.4,5.00,0.00,22.3,21.6,00.0,31.5,24.0,10.6,0000.0,0001.25,0007.67,0000.41
2022-01-04 22:48:00,,0819.5,4.99,0.00,22.3,21.6,00.0,31.4,24.0,10.3,0000.0,0001.22,0007.61,0000.41
2022-01-04 22:49:00,,0819.5,5.01,0.00,22.3,21.6,00.0,31.4,24.0,10.3,0000.0,0001.14,0007.76,0000.41
2022-01-04 22:50:00,,0819.5,5.00,0.00,22.3,21.6,00.0,31.4,24.0,10.1,0000.0,0001.17,0007.86,0000.41
2022-01-04 22:51:00,,0819.4,5.00,0.00,22.3,21.6,00.0,31.4,24.0,09.8,0000.0,0001.19,0007.88,0000.42
2022-01-04 22:52:00,,0819.5,5.00,0.00,22.3,21.6,00.0,31.4,24.0,09.9,0000.0,0001.22,0007.76,0000.42
2022-01-04 22:53:00,,0819.5,4.99,0.00,22.3,21.7,00.0,31.4,24.0,10.1,0000.0,0001.24,0007.79,0000.42
2022-01-04 22:54:00,,0819.4,5.01,0.00,22.3,21.7,00.0,31.4,24.1,10.2,0000.0,0001.35,0007.98,0000.42
2022-01-04 22:55:00,,0819.3,4.99,0.00,22.3,21.6,00.0,31.4,24.0,10.3,0000.0,0001.34,0008.00,0000.43
2022-01-04 22:56:00,,0819.5,5.01,0.00,22.3,21.6,00.0,31.4,24.0,10.3,0000.0,0001.40,0007.95,0000.44
2022-01-04 22:57:00,,0819.6,4.99,0.00,22.3,21.5,00.0,31.4,23.9,10.2,0000.0,0001.42,0007.12,0000.44
2022-01-04 22:58:00,,0819.6,5.00,0.00,22.3,21.5,00.0,31.4,23.9,10.3,0000.0,0001.47,0006.79,0000.44
2022-01-04 22:59:00,,0819.5,4.99,0.00,22.3,21.5,00.0,31.4,23.9,10.7,0000.0,0001.43,0006.53,0000.44
